Miscellaneous Local Product
Issued by NWS North Platte, NE

Home | Current Version | Previous Version | Graphics & Text | Print | Product List | Glossary On
Versions: 1 2 3 4 5 6 7 8 9 10 11 12 13 14 15 16 17 18 19 20 21 22 23 24 25 26 27 28 29 30 31 32 33 34 35 36 37 38 39 40 41 42 43 44 45 46 47 48 49 50
000
AXUS43 KLBF 260010
MISLBF


WESTERN AND NORTH CENTRAL NEBRASKA HOURLY WEATHER ROUNDUP
NATIONAL WEATHER SERVICE NORTH PLATTE NE
600 PM CST WED FEB 25 2015

***STATIONS NOT REPORTING VARIABLES SUCH AS SKY/WEATHER OR
PRESSURE ARE PROVIDED BY THE NEBRASKA DEPARTMENT OF
ROADS...RAWS...AND APRS NETWORKS...AND ARE NOT UNDER
NATIONAL WEATHER SERVICE QUALITY CONTROL***

...OBSERVATIONS IN AND NEAR THE EASTERN PANHANDLE OF NEBRASKA...

CITY           SKY/WX    TMP DP  RH WIND       PRES   REMARKS
PINE RIDGE     LGT SNOW  19  13  77 NE13      30.12R VSB 3/4 WCI   6
CHADRON        LGT SNOW  22  17  81 NE18      30.11R VSB 1   WCI   7
ALLIANCE       CLOUDY    25  18  74 NE14      30.00F WCI  13
SIDNEY         MOCLDY    30  22  72 NE12      29.98S WCI  20
WHITECLAY        N/A     18  12  79 N9          N/A  WCI   7
LISCO            N/A     30  18  61 W8          N/A  WCI  22
BIG SPRINGS      N/A     31  20  63 N12         N/A  WCI  22
LEWELLEN         N/A     27  11  51 N12         N/A  WCI  17
$$

...OBSERVATIONS IN NORTH CENTRAL NEBRASKA...

CITY           SKY/WX    TMP DP  RH WIND       PRES   REMARKS
VALENTINE      CLOUDY    15   7  70 N18G25    30.15S WCI  -2
THEDFORD       LGT SNOW  18  11  75 N13G24    30.09R WCI   5
AINSWORTH      LGT SNOW  14   9  78 N18G25    30.14R WCI  -3
O`NEILL        LGT SNOW  16  11  81 N18G24    30.14R WCI   0
ORD            CLOUDY    17   8  67 N22G32    30.09R WCI   0
BROKEN BOW     CLOUDY    20  11  68 N20G29    30.07R WCI   4
BROWNLEE         N/A     13   7  75 NE21        N/A  WCI  -5
SPRINGVIEW       N/A     14   6  72 N7G18       N/A  WCI   4
BREWSTER         N/A     20  13  72 N17         N/A  WCI   6
ROSE             N/A     21  17  85 NE12        N/A  WCI   9
NEWPORT          N/A     22  16  78 SW13        N/A  WCI   9
SARGENT          N/A     18  11  75 N7G21       N/A  WCI   9
COMSTOCK         N/A     25  17  72 N23         N/A  WCI   9
CHAMBERS         N/A     15   7  71 N9          N/A  WCI   3
EWING            N/A     15  11  82 N13G22      N/A  WCI   1
$$

...OBSERVATIONS IN SOUTHWEST NEBRASKA AND FAR NORTHEAST COLORADO...

CITY           SKY/WX    TMP DP  RH WIND       PRES   REMARKS
WRAY           CLOUDY    34  23  62 N15G24    30.01R WCI  25
IMPERIAL         N/A     31  18  58 N22       30.01R WCI  18
OGALLALA       PTCLDY    28  17  62 NE16      30.03R WCI  17
NORTH PLATTE   CLEAR     23  11  60 N21G26    30.05R WCI   8
MCCOOK         CLEAR     31  18  58 NE21G28   30.01R WCI  18
LEXINGTON      CLOUDY    25  15  66 N17G29    30.05R WCI  11
PAXTON           N/A     28  17  64 N12         N/A  WCI  18
BRADY            N/A     22  12  65 MISG        N/A
GOTHENBURG       N/A     23  13  65 N12         N/A  WCI  12
CALLAWAY         N/A     20  13  74 NE18        N/A  WCI   5
$$

...NORTH PLATTE AREA...

CITY           SKY/WX    TMP DP  RH WIND       PRES   REMARKS
AIRPORT        CLEAR     23  11  60 N21G26    30.05R WCI   8
DOWNTOWN         N/A     23  13  64 N7G18       N/A  WCI  15
$$

...SOME WEATHER OBSERVATIONS FROM AROUND THE REGION...

CITY           SKY/WX    TMP DP  RH WIND       PRES   REMARKS
DENVER         SNOW      28  27  96 N16       30.00R VSB 1/4 WCI  16
LARAMIE        CLOUDY    23  16  74 N12       29.96R WCI  12
CHEYENNE       CLOUDY    26  18  71 N15G29    29.96R WCI  14
SCOTTSBLUFF    CLOUDY    33  24  69 NE7       30.00S WCI  27
RAPID CITY     LGT SNOW  15  11  83 N23G30    30.19R FOG     WCI  -3
PIERRE         CLOUDY    12   3  67 N18       30.27R WCI  -6
WINNER         CLOUDY    15   5  64 N17       30.21R WCI  -1
SIOUX FALLS    MOCLDY     8   1  73 N12       30.17R WCI  -7
OMAHA          FLURRIES  21  14  74 N28G33    30.03R WCI   3
GRAND ISLAND   CLOUDY    20  13  74 N28       30.08R WCI   2
KANSAS CITY    LGT RAIN  38  35  89 NW20G28   29.79R WCI  28
WICHITA        CLOUDY    45  34  65 N21G33    29.83R
HAYS           PTCLDY    39  21  48 N29G36    29.94R WCI  28
LIBERAL        CLOUDY    46  34  61 N20G25    29.89R
GOODLAND       CLOUDY    35  26  69 N22G33    29.96R WCI  23
$$



USA.gov is the U.S. government's official web portal to all federal, state and local government web resources and services.